METEOR 2-5 DEB

Satellite information

Favourite Embed

Satellite Type and Status

DEBRISIN ORBIT

Key statistics

Satellite METEOR 2-5 DEB at a glance.

Uptime

16845

Days in orbit

Revolutions

≈ 14.2

Per day

Orbit

LEO

Low Earth Orbit

Inclination

81.2

Latest

Satellite identification and parameters

Extended collection of information and parameters for METEOR 2-5 DEB.

Object identification

Identified? True

Debris? True

Object name: METEOR 2-5 DEB

International designator: 1979-095CT

Object number (NORAD): 45511

Object ID (CCSDS): 45511

Country: COMMONWEALTH OF INDEPENDENT STATES (CIS)

Current information (Y/N): Y

RCS size: SMALL

Orbital parameters

Period: 101.257 minutes

Inclination: 81.2207 deg

SMA: 7196.32 km

Apoapsis: 823.643 km

Periapsis: 812.726 km

RAAN: 35.2256 deg

Eccentricy: 0.00075857

Argument of periapsis: 334.4815 deg

Mean anomaly: 25.5987 deg

Mean motion: 14.22122798 rev/day

Mean motion (dot): 0.00004436 rev/day2

B* drag term: 0.0019976185 1/REarth

Two-line elements (TLE)

Creation date: Dec. 11, 2025, 7:14 p.m.

Reference frame: TEME

Reference center: EARTH

Epoch: Dec. 11, 2025, 10:52 a.m. UTC

TLE line 0: 0 METEOR 2-5 DEB

TLE line 1: 1 45511U 79095CT 25345.45312361 .00004436 00000-0 19976-2 0 9991

TLE line 2: 2 45511 81.2207 35.2256 0007586 334.4815 25.5987 14.22122798413052

Live tracking on map

Real-time ground track for satellite METEOR 2-5 DEB.

In-orbit conjunctions

A list of the most updated potential collisions computed for object METEOR 2-5 DEB.

Target Orbit TCA Probability of collision Miss distance Type
CZ-6A DEB SSO 2025-10-05 03:57:22 0.0001160719 110.0 (m) DEBRIS
DMSP 5D-2 F11 DEB SSO 2025-09-21 16:26:30 0.0007884654 46.0 (m) DEBRIS
CZ-6A DEB SSO 2025-04-17 12:43:21 0.0003528921 138.0 (m) DEBRIS
FENGYUN 1C DEB SSO 2024-11-12 21:54:47 0.000140112 386.0 (m) DEBRIS
FENGYUN 1C DEB SSO 2024-11-07 18:06:09 0.0001241278 361.0 (m) DEBRIS

Associated space launch

Second generation soviet meteorological satellite

METEOR 2-5 DEB was lifted into orbit during the mission ‘Vostok 8A92M | Meteor-2 5’, on board a Vostok 8A92M space rocket.

The launch took place on Oct. 31, 1979, 9:25 a.m. from 43/4 (43R).

For more information about the launch, click the button.

Launch to space Vostok 8A92M | Meteor-2 5
Vostok 8A92M | Meteor-2 5

Agency: N/A

Status: Launch Successful

Launch date: Oct. 31, 1979, 9:25 a.m. UTC

Rocket: Vostok 8A92M

Launch pad: 43/4 (43R)

Location: Plesetsk Cosmodrome, Russian Federation

...

Latest news about this satellite

There are no fresh news available about this satellite. Check back as we update our databases every day.


Newsletter sign-up

Weekly statistics, charts and insights to help you stay on top of the space industry.